User: anonymous   Login
Location: Albany
(35.0000°S, 118.0000°E)
Time: 13:51:05
(UTC-04:00)
Language:

ERS-1 Rocket - Orbit

View from above orbital plane
View from above orbital plane
View from above satellite
View from above satellite

Ground track
Ground track

The orbit data is extracted from the following two-line orbital elements,

1 21610U 91050F   16176.81309968  .00000033  00000-0  24512-4 0  9994
2 21610  98.6552 224.1433 0002014 301.4486 188.0346 14.40741776308652
Epoch (UTC): 24 June 2016 19:30:51
Eccentricity: 0.0002014
inclination: 98.6552°
perigee height: 754 km
apogee height: 757 km
right ascension of ascending node: 224.1433°
argument of perigee: 301.4486°
revolutions per day: 14.40741776
mean anomaly at epoch: 188.0346°
orbit number at epoch: 30865

The dashed part of the orbit path shows where the satellite is in the earth's shadow,  

DLR